Погода в Новой Бряни

Россия / Республика Бурятия     51°42′43″N   108°15′29″E
темп.,
°C
ветер,
м/с
пор.,
м/с
влажн.,
%
обл.,
%
осадки,
мм/ч
давл.,
гПа
погр.,
м
12 мая, ср
ср1223:00+3зюз23815 0.0 101541
02:00+2зюз22865 0.0 101432
05:00+1зюз22865 0.0 101432
08:00+8з26555 0.0 1012486
11:00+13з573598 0.0 10092635
14:00+15зсз6827100 0.0 10073055
17:00+13сз794325 0.0 10071746
20:00+8зсз48565 0.0 1010363
13 мая, чт
чт1323:00+3з22731 0.0 101324
02:00+2з227585 0.0 101313
05:00+1з117783 0.0 101310
08:00+5сз355281 0.1 10131542
11:00+8зсз6830100 0.1 10122700
14:00+9сз7924100 0.1 10113290
17:00+8сз6827100 0.0 10122927
20:00+5сз36395 0.0 1013191
14 мая, пт
пт1423:00+1зюз25533 0.0 101592
02:000з38620 0.0 1016194
05:00−2з22740 0.0 101733
08:00+4зсз25541 0.0 1017609
11:00+9зсз45385 0.0 10151519
14:00+12зсз45315 0.0 10131949
17:00+13зсз45293 0.0 10122027
20:00+8зсз22420 0.0 101433
15 мая, сб
сб1523:00+4юз21520 0.0 101612
02:00+2ююв11570 0.0 101710
05:00+1ююв11615 0.0 101711
08:00+9ююз02335 0.0 1015391
11:00+16зсз462252 0.0 10121421
14:00+16сз7728100 0.0 10131756
17:00+14зсз68355 0.0 10141641
20:00+9зсз6114628 0.0 1017662
16 мая, вс
вс1623:00+5з24577 0.0 101971
02:00+4зюз256614 0.0 102092
05:00+3юз23769 0.0 102058
08:00+9з6126380 0.0 10191006
11:00+12зсз6105977 0.0 10181153
14:00+18зсз583734 0.0 10152104
17:00+19зсз483123 0.0 10122387
20:00+14зюз11485 0.0 101211